BGBWCYYR

Guest
Details From BGBW - Narsarsuaq
To CYYR - Goose Bay
Flight Number -
Tags decoded
Created
Modified
Stats Distance 705 nm / 1,306 km
Max Altitude 0 ft / 0 m
Waypoints 3
Social Downloads 2
Likes 0
Share VATSIM

Download

Looking for another format? Having issues loading an existing format? Contact us
Advertisement - Login to hide

Notes

Requested: BGBW HO CYYR

Route

BGBW HO CYYR

ID Type Via Altitude Latitude Longitude Leg Dist Tot Dist Heading (true) Name
O BGBW APT - 0 ft / 0 m 61.16052˚ -45.42598˚ - 0 nm - Narsarsuaq
HO NDB - 0 ft / 0 m 55.45750˚ -60.20917˚ 576 nm 576 nm 240° / 228° HOPEDALE NDB
O CYYR APT - 0 ft / 0 m 53.31882˚ -60.42389˚ 128 nm 705 nm 183° / 183° Goose Bay

Altitude Profile

Advertisement - Login to hide

Weather


0- 5 10 15 20 25 30 35+ Temperature / ° C

Clouds and Precipitation
Forecast for 2018-05-27 06:00 UTC. Updated 3 hours ago

Ground ~20,000 ft ~40,000 ft Winds

BGBW

Details ICAO BGBW (UAK)
Name Narsarsuaq
Region Greenland
Timezone America/Godthab (UTC-2.0)
Stats Elevation 112 ft / 34 m (AMSL)
Location 61.160516° -45.425976°
Runways 1
Magnetic Variation 22.771° W

METAR

BGBW 270750Z 21005KT 9999 -SN FEW015 BKN025 BKN035 M00/M04 Q1015

Decode

TAF

Not found

Departure Runways

ID Width Length Bearing (true) Bearing (mag) Surface Threshold Offset Overrun Length
07 148 ft / 45 m 5,921 ft / 1,805 m 40.57° 63.34° Concrete 0 ft / 0 m 0 ft / 0 m
25 148 ft / 45 m 5,921 ft / 1,805 m 220.58° 243.35° Concrete 0 ft / 0 m 279 ft / 85 m

CYYR

Details ICAO CYYR (YYR)
Name Goose Bay
Region Canada
Timezone America/Goose_Bay (UTC-3.0)
Stats Elevation 160 ft / 49 m (AMSL)
Location 53.318820° -60.423890°
Runways 2
Magnetic Variation 20.867° W

METAR

CYYR 270800Z 29007KT 15SM FEW049 FEW072 M02/M07 A3021 RMK SC1AC1 SLP235

Decode

TAF

TAF CYYR 270530Z 2706/2806 32012G22KT P6SM BKN040 FM271500 32010KT P6SM SCT030 BECMG 2721/2723 27005KT FM280000 VRB03KT P6SM FEW120 SCT200 RMK NXT FCST BY 271200Z

Decode

Destination Runways

ID Width Length Bearing (true) Bearing (mag) Surface Threshold Offset Overrun Length
08 209 ft / 64 m 11,055 ft / 3,369 m 54.70° 75.57° Asphalt 0 ft / 0 m 1,000 ft / 305 m
16 200 ft / 61 m 9,515 ft / 2,900 m 132.96° 153.83° Asphalt 0 ft / 0 m 0 ft / 0 m
26 209 ft / 64 m 11,055 ft / 3,369 m 234.73° 255.60° Asphalt 0 ft / 0 m 1,000 ft / 305 m
34 200 ft / 61 m 9,515 ft / 2,900 m 312.99° 333.86° Asphalt 0 ft / 0 m 500 ft / 152 m

Popular Alternatives